Flag for Iran Weather past 2 weeks in Esfahãn, Iran

Now
88 °F

Sunny.


Feels Like: 84 °F
Forecast: 56 / 93 °F
Wind: 7 mph from Southwest

Location: Esfahan

Current Time: Aug 23, 2014 at 2:05:33 PM

Latest Report: Aug 23, 2014 at 1:30 PM


Visibility: 10 mi

Pressure: 30.07 "Hg

Humidity: 9%

Dew point: 21 °F

Location of EsfahãnLocation

Historic Weather in Esfahãn — Graph

°F

Esfahãn temperature yesterday

Maximum temperature yesterday: 97 °F (at 5:00 PM)
Minimum temperature yesterday: 55 °F (at 7:30 AM)
Average temperature yesterday: 81 °F

Past Weeks' High & Low Weather Summary

 TemperatureHumidityPressure
High104 °F (Aug 8, 3:30 PM)49% (Aug 16, 4:30 AM)30.15 "Hg (Aug 16, 4:30 AM)
Low55 °F (Aug 11, 6:00 AM)3% (Aug 9, 12:30 PM)29.77 "Hg (Aug 8, 7:00 PM)
Average83 °F15%29.99 "Hg
* Reported Aug 8 12:30 PM — Aug 23 1:00 PM, Esfahãn, Weather by CustomWeather, © 2014

Note: Actual official high and low records may vary slightly from our data, if they occured in-between our weather recording intervals... More about our weather records

Advertising

Esfahãn weather history for previous 24 hours

 ConditionsComfort  
Time TempWeatherWind HumidityBarometerVisibility
1:00 PM
Aug 23
88 °FSunny.7 mph9%30.07 "Hg10 mi
12:30 PM86 °FSunny.7 mph8%30.09 "Hg10 mi
12:00 PM84 °FSunny.5 mph10%30.09 "Hg10 mi
11:30 AM84 °FSunny.5 mph11%30.12 "Hg10 mi
11:00 AM84 °FSunny.No wind11%30.12 "Hg10 mi
10:30 AM81 °FSunny.5 mph13%30.12 "Hg10 mi
10:00 AM79 °FSunny.5 mph15%30.12 "Hg10 mi
9:30 AM75 °FSunny.5 mph15%30.12 "Hg10 mi
9:00 AM73 °FSunny.7 mph19%30.12 "Hg10 mi
8:30 AM70 °FSunny.5 mph17%30.09 "Hg10 mi
8:00 AM66 °FClear.No wind19%30.09 "Hg10 mi
7:30 AM55 °FClear.No wind28%30.09 "Hg10 mi
7:00 AM57 °FClear.No wind23%30.09 "Hg10 mi
6:30 AM57 °FClear.No wind25%30.07 "Hg10 mi
6:00 AM57 °FClear.5 mph27%30.07 "Hg10 mi
5:30 AM61 °FClear.No wind23%30.07 "Hg10 mi
5:00 AM63 °FClear.No wind22%30.04 "Hg10 mi
4:30 AM63 °FClear.7 mph22%30.04 "Hg10 mi
4:00 AM63 °FClear.No wind20%30.04 "Hg10 mi
3:30 AM61 °FClear.5 mph25%30.04 "Hg10 mi
3:00 AM64 °FClear.5 mph22%30.04 "Hg10 mi
2:30 AM64 °FClear.5 mph21%30.04 "Hg10 mi
2:00 AM64 °FClear.7 mph19%30.04 "Hg10 mi
1:30 AM73 °FClear.9 mph13%30.04 "Hg10 mi
1:00 AM72 °FClear.9 mph13%30.04 "Hg10 mi
12:30 AM73 °FClear.12 mph14%30.04 "Hg10 mi
12:00 AM77 °FClear.7 mph11%30.04 "Hg10 mi
11:30 PM
Aug 22
77 °FClear.5 mph12%30.04 "Hg10 mi
11:00 PM77 °FClear.7 mph11%30.01 "Hg10 mi
10:30 PM79 °FClear.9 mph11%30.01 "Hg10 mi
10:00 PM79 °FClear.7 mph12%30.01 "Hg10 mi
9:30 PM79 °FClear.9 mph12%29.98 "Hg10 mi
9:00 PM81 °FSunny.12 mph13%29.98 "Hg10 mi
8:30 PM84 °FSunny.14 mph10%29.95 "Hg10 mi
8:00 PM86 °FSunny.14 mph10%29.95 "Hg10 mi
7:30 PM88 °FSunny.14 mph10%29.95 "Hg10 mi
7:00 PM90 °FSunny.22 mph9%29.92 "Hg10 mi
6:30 PM93 °FSunny.21 mph8%29.92 "Hg10 mi
6:00 PM95 °FSunny.7 mph6%29.92 "Hg10 mi
5:30 PM95 °FPassing clouds.5 mph6%29.92 "HgN/A
5:00 PM97 °FPassing clouds.No wind6%29.92 "HgN/A
4:30 PM95 °FPassing clouds.9 mph5%29.92 "HgN/A
4:00 PM95 °FPassing clouds.9 mph6%29.92 "HgN/A
3:30 PM95 °FPassing clouds.9 mph5%29.95 "HgN/A
3:00 PM93 °FPassing clouds.7 mph6%29.95 "HgN/A
2:30 PM93 °FPassing clouds.5 mph6%29.95 "HgN/A
2:00 PM93 °FSunny.7 mph6%29.98 "Hg10 mi
Weather by CustomWeather, © 2014

See weather overviewHow to use our weather pages